QPF
0.24 0.28 0.31 0.32 0.32 0.29 0.25 0.23 0.23 0.24 0.25 0.21 0.18 0.15 0.12 0.10 0.09 0.07 0.06 0.06 0.05 0.03 0.02 0.02 0.02 0.01 0.01 0.01 0.01 0.01 0.01 0.00 0.01 0.01 0.01 0.01 0.01 0.01
0.22 0.24 0.28 0.33 0.34 0.33 0.32 0.30 0.26 0.25 0.26 0.23 0.18 0.15 0.12 0.11 0.10 0.08 0.06 0.05 0.04 0.02 0.02 0.01 0.01 0.01 0.01 0.01 0.00 0.00 0.00 0.00 0.00 0.00 0.00 0.00 0.00 0.00
0.20 0.22 0.24 0.24 0.24 0.26 0.26 0.25 0.24 0.23 0.21 0.19 0.16 0.15 0.14 0.12 0.10 0.07 0.05 0.04 0.03 0.01 0.01 0.00 0.00 0.00 0.00 0.00 0.00 0.00 0.00 0.00 0.00 0.00 0.00 0.00 0.00 0.00
0.14 0.16 0.16 0.16 0.17 0.18 0.18 0.18 0.17 0.14 0.12 0.12 0.13 0.12 0.10 0.08 0.06 0.05 0.04 0.02 0.01 0.01 0.00 0.00 0.00 0.00 0.00 0.00 0.00 0.00 0.00 0.00 0.00 0.00 0.00 0.00 0.00 0.00
0.08 0.09 0.10 0.10 0.11 0.11 0.12 0.12 0.11 0.09 0.09 0.10 0.11 0.09 0.06 0.05 0.04 0.03 0.02 0.01 0.01 0.01 0.00 0.00 0.00 0.00 0.00 0.00 0.00 0.00 0.00 0.00 0.00 0.00 0.00 0.00 0.00 0.00
0.06 0.06 0.07 0.07 0.07 0.07 0.07 0.06 0.06 0.06 0.07 0.07 0.07 0.06 0.05 0.03 0.03 0.02 0.02 0.01 0.01 0.00 0.00 0.00 0.00 0.00 0.00 0.00 0.00 0.00 0.00 0.00 0.00 0.00 0.00 0.00 0.00 0.00
0.04 0.03 0.04 0.05 0.05 0.05 0.05 0.04 0.04 0.04 0.04 0.04 0.04 0.03 0.03 0.02 0.02 0.02 0.02 0.02 0.01 0.00 0.00 0.00 0.00 0.01 0.01 0.00 0.00 0.00 0.00 0.00 0.00 0.00 0.00 0.00 0.00 0.00
0.05 0.04 0.04 0.04 0.04 0.04 0.03 0.03 0.03 0.03 0.03 0.02 0.02 0.02 0.02 0.02 0.01 0.01 0.01 0.02 0.03 0.01 0.01 0.02 0.01 0.02 0.03 0.02 0.00 0.00 0.00 0.00 0.00 0.00 0.00 0.00 0.00 0.00
0.06 0.04 0.03 0.03 0.03 0.02 0.01 0.01 0.01 0.01 0.01 0.02 0.02 0.02 0.02 0.01 0.01 0.01 0.01 0.02 0.03 0.01 0.01 0.03 0.01 0.02 0.01 0.00 0.00 0.00 0.00 0.00 0.00 0.00 0.00 0.00 0.00 0.00
0.05 0.04 0.02 0.02 0.01 0.01 0.01 0.01 0.00 0.00 0.01 0.01 0.01 0.01 0.01 0.01 0.01 0.01 0.01 0.01 0.02 0.01 0.01 0.02 0.01 0.01 0.00 0.01 0.00 0.00 0.00 0.00 0.00 0.00 0.00 0.00 0.00 0.00
0.02 0.02 0.01 0.01 0.00 0.00 0.01 0.00 0.00 0.00 0.00 0.00 0.00 0.00 0.00 0.00 0.00 0.01 0.01 0.02 0.03 0.03 0.01 0.02 0.01 0.01 0.01 0.01 0.00 0.00 0.00 0.00 0.00 0.00 0.00 0.00 0.00 0.00
0.01 0.00 0.00 0.00 0.00 0.00 0.01 0.01 0.01 0.00 0.00 0.00 0.00 0.00 0.00 0.00 0.00 0.01 0.02 0.01 0.02 0.03 0.02 0.01 0.02 0.01 0.02 0.02 0.01 0.01 0.00 0.00 0.00 0.00 0.00 0.00 0.00 0.00
0.00 0.00 0.00 0.00 0.00 0.00 0.00 0.01 0.00 0.00 0.01 0.00 0.01 0.01 0.01 0.01 0.01 0.01 0.01 0.01 0.02 0.03 0.01 0.01 0.03 0.03 0.04 0.04 0.02 0.02 0.01 0.01 0.01 0.01 0.01 0.00 0.00 0.00
0.00 0.00 0.00 0.00 0.00 0.00 0.00 0.00 0.00 0.00 0.00 0.00 0.01 0.01 0.01 0.01 0.00 0.00 0.00 0.00 0.01 0.01 0.01 0.01 0.02 0.04 0.05 0.06 0.04 0.01 0.01 0.01 0.01 0.01 0.01 0.00 0.00 0.00
0.00 0.00 0.00 0.00 0.00 0.00 0.00 0.00 0.00 0.00 0.00 0.00 0.00 0.00 0.00 0.00 0.00 0.00 0.00 0.00 0.00 0.00 0.00 0.00 0.02 0.03 0.03 0.04 0.03 0.01 0.01 0.01 0.01 0.01 0.01 0.01 0.01 0.01
0.00 0.00 0.00 0.00 0.00 0.00 0.00 0.00 0.00 0.00 0.00 0.00 0.00 0.00 0.00 0.00 0.00 0.00 0.00 0.00 0.00 0.00 0.00 0.00 0.00 0.01 0.02 0.02 0.02 0.02 0.01 0.01 0.00 0.01 0.00 0.00 0.01 0.01
0.00 0.00 0.00 0.00 0.00 0.00 0.00 0.00 0.00 0.00 0.00 0.00 0.00 0.00 0.00 0.00 0.00 0.00 0.00 0.00 0.00 0.00 0.00 0.00 0.00 0.00 0.00 0.01 0.01 0.01 0.01 0.01 0.00 0.00 0.01 0.01 0.00 0.00
0.00 0.01 0.00 0.00 0.00 0.00 0.00 0.00 0.00 0.00 0.00 0.00 0.00 0.00 0.00 0.00 0.00 0.00 0.00 0.00 0.00 0.00 0.00 0.00 0.00 0.00 0.00 0.00 0.00 0.00 0.00 0.00 0.00 0.00 0.00 0.01 0.00 0.00
0.00 0.00 0.00 0.00 0.00 0.00 0.00 0.00 0.00 0.00 0.00 0.00 0.00 0.00 0.00 0.00 0.00 0.00 0.00 0.00 0.00 0.00 0.00 0.00 0.00 0.00 0.00 0.01 0.00 0.00 0.00 0.00 0.00 0.00 0.00 0.00 0.00 0.00
0.00 0.00 0.00 0.00 0.00 0.00 0.00 0.00 0.00 0.00 0.00 0.00 0.00 0.00 0.00 0.00 0.00 0.00 0.00 0.00 0.00 0.00 0.00 0.00 0.00 0.00 0.00 0.00 0.00 0.00 0.00 0.00 0.00 0.00 0.00 0.00 0.00 0.00
0.00 0.00 0.00 0.00 0.00 0.00 0.00 0.00 0.00 0.00 0.00 0.00 0.00 0.00 0.00 0.00 0.00 0.00 0.00 0.00 0.00 0.00 0.00 0.00 0.00 0.00 0.00 0.00 0.00 0.00 0.00 0.00 0.00 0.00 0.00 0.00 0.00 0.00
0.00 0.00 0.00 0.00 0.00 0.00 0.00 0.00 0.00 0.00 0.00 0.00 0.00 0.00 0.00 0.00 0.00 0.00 0.00 0.00 0.00 0.00 0.00 0.00 0.00 0.00 0.00 0.00 0.00 0.00 0.00 0.00 0.00 0.00 0.00 0.00 0.00 0.00
0.00 0.00 0.00 0.00 0.00 0.00 0.00 0.00 0.00 0.00 0.00 0.00 0.00 0.00 0.00 0.00 0.00 0.00 0.00 0.00 0.00 0.00 0.00 0.00 0.00 0.00 0.00 0.00 0.00 0.00 0.00 0.00 0.00 0.00 0.00 0.00 0.00 0.00
MSLP
1014.02 1014.84 1015.86 1017.00 1018.21 1019.40 1020.51 1021.50 1022.34 1023.03 1023.59 1024.04 1024.42 1024.75 1025.04 1025.32 1025.59 1025.85 1026.10 1026.34 1026.57 1026.78 1026.99 1027.18 1027.36 1027.52 1027.66 1027.78 1027.87 1027.92 1027.95 1027.95 1027.93 1027.88 1027.80 1027.69 1027.55 1027.39
1014.29 1015.10 1016.07 1017.17 1018.31 1019.43 1020.48 1021.41 1022.20 1022.86 1023.40 1023.84 1024.21 1024.53 1024.81 1025.08 1025.33 1025.57 1025.80 1026.02 1026.23 1026.43 1026.63 1026.84 1027.04 1027.24 1027.42 1027.59 1027.73 1027.83 1027.90 1027.92 1027.90 1027.84 1027.73 1027.59 1027.41 1027.21
1014.92 1015.69 1016.60 1017.60 1018.63 1019.62 1020.55 1021.36 1022.07 1022.66 1023.15 1023.56 1023.92 1024.23 1024.51 1024.76 1025.00 1025.22 1025.42 1025.60 1025.79 1025.97 1026.16 1026.36 1026.57 1026.79 1027.01 1027.22 1027.40 1027.55 1027.65 1027.70 1027.69 1027.63 1027.51 1027.35 1027.15 1026.93
1015.78 1016.50 1017.32 1018.20 1019.08 1019.91 1020.68 1021.36 1021.95 1022.46 1022.89 1023.27 1023.61 1023.92 1024.20 1024.45 1024.68 1024.88 1025.05 1025.21 1025.35 1025.50 1025.67 1025.85 1026.05 1026.27 1026.51 1026.74 1026.95 1027.13 1027.26 1027.33 1027.35 1027.29 1027.19 1027.03 1026.83 1026.60
1016.75 1017.42 1018.14 1018.87 1019.58 1020.25 1020.85 1021.39 1021.86 1022.28 1022.67 1023.02 1023.36 1023.68 1023.97 1024.23 1024.46 1024.65 1024.80 1024.93 1025.03 1025.14 1025.26 1025.40 1025.58 1025.78 1026.00 1026.23 1026.45 1026.63 1026.78 1026.87 1026.90 1026.87 1026.78 1026.64 1026.46 1026.26
1017.73 1018.33 1018.94 1019.53 1020.08 1020.59 1021.04 1021.45 1021.82 1022.18 1022.53 1022.88 1023.23 1023.57 1023.89 1024.17 1024.41 1024.59 1024.73 1024.82 1024.89 1024.95 1025.01 1025.10 1025.22 1025.38 1025.56 1025.76 1025.95 1026.13 1026.27 1026.36 1026.40 1026.39 1026.32 1026.21 1026.07 1025.91
1018.64 1019.17 1019.67 1020.13 1020.55 1020.92 1021.25 1021.57 1021.87 1022.19 1022.53 1022.89 1023.26 1023.63 1023.98 1024.28 1024.53 1024.72 1024.84 1024.91 1024.93 1024.94 1024.94 1024.97 1025.02 1025.11 1025.23 1025.37 1025.51 1025.65 1025.76 1025.83 1025.87 1025.87 1025.82 1025.74 1025.64 1025.52
1019.44 1019.89 1020.31 1020.67 1020.99 1021.26 1021.51 1021.77 1022.04 1022.34 1022.68 1023.06 1023.45 1023.85 1024.22 1024.55 1024.81 1024.99 1025.10 1025.14 1025.12 1025.07 1025.02 1024.98 1024.95 1024.96 1025.00 1025.07 1025.14 1025.21 1025.27 1025.31 1025.32 1025.31 1025.27 1025.22 1025.15 1025.07
1020.14 1020.53 1020.87 1021.16 1021.41 1021.63 1021.85 1022.07 1022.33 1022.63 1022.98 1023.37 1023.78 1024.19 1024.58 1024.90 1025.16 1025.33 1025.42 1025.43 1025.37 1025.28 1025.17 1025.06 1024.97 1024.90 1024.85 1024.83 1024.82 1024.81 1024.80 1024.79 1024.76 1024.72 1024.68 1024.63 1024.59 1024.54
1020.76 1021.10 1021.40 1021.65 1021.87 1022.07 1022.27 1022.49 1022.75 1023.05 1023.40 1023.78 1024.19 1024.58 1024.95 1025.26 1025.49 1025.63 1025.69 1025.67 1025.58 1025.45 1025.30 1025.14 1024.99 1024.85 1024.73 1024.63 1024.53 1024.45 1024.36 1024.27 1024.19 1024.12 1024.05 1024.00 1023.96 1023.93
1021.37 1021.67 1021.94 1022.18 1022.39 1022.59 1022.79 1023.01 1023.26 1023.55 1023.88 1024.23 1024.60 1024.95 1025.26 1025.52 1025.70 1025.80 1025.83 1025.78 1025.67 1025.52 1025.34 1025.15 1024.96 1024.78 1024.61 1024.43 1024.27 1024.11 1023.95 1023.79 1023.65 1023.53 1023.43 1023.35 1023.31 1023.28
1021.98 1022.27 1022.53 1022.76 1022.98 1023.18 1023.38 1023.59 1023.82 1024.08 1024.35 1024.65 1024.94 1025.21 1025.45 1025.63 1025.75 1025.81 1025.79 1025.72 1025.59 1025.43 1025.25 1025.06 1024.86 1024.66 1024.45 1024.24 1024.03 1023.81 1023.59 1023.38 1023.18 1023.00 1022.86 1022.76 1022.69 1022.66
1022.63 1022.89 1023.15 1023.38 1023.59 1023.79 1023.98 1024.16 1024.35 1024.55 1024.76 1024.97 1025.17 1025.35 1025.49 1025.59 1025.64 1025.64 1025.59 1025.50 1025.37 1025.22 1025.05 1024.87 1024.69 1024.49 1024.28 1024.06 1023.82 1023.56 1023.30 1023.05 1022.81 1022.59 1022.41 1022.27 1022.19 1022.14
1023.28 1023.52 1023.76 1023.98 1024.18 1024.36 1024.52 1024.67 1024.80 1024.93 1025.05 1025.17 1025.27 1025.35 1025.40 1025.42 1025.41 1025.36 1025.28 1025.18 1025.06 1024.92 1024.78 1024.63 1024.48 1024.30 1024.11 1023.89 1023.65 1023.39 1023.11 1022.83 1022.56 1022.31 1022.11 1021.95 1021.83 1021.77
1023.89 1024.10 1024.31 1024.51 1024.68 1024.82 1024.94 1025.03 1025.11 1025.17 1025.21 1025.24 1025.26 1025.25 1025.23 1025.19 1025.13 1025.05 1024.95 1024.84 1024.73 1024.62 1024.51 1024.39 1024.27 1024.13 1023.96 1023.77 1023.54 1023.28 1023.00 1022.71 1022.43 1022.17 1021.95 1021.77 1021.64 1021.56
1024.39 1024.56 1024.73 1024.89 1025.02 1025.12 1025.19 1025.23 1025.25 1025.25 1025.24 1025.21 1025.17 1025.11 1025.05 1024.97 1024.87 1024.77 1024.67 1024.57 1024.47 1024.37 1024.28 1024.19 1024.09 1023.98 1023.84 1023.67 1023.46 1023.22 1022.95 1022.67 1022.39 1022.12 1021.89 1021.69 1021.55 1021.46
1024.73 1024.85 1024.97 1025.07 1025.16 1025.22 1025.25 1025.25 1025.24 1025.21 1025.17 1025.11 1025.05 1024.98 1024.90 1024.81 1024.71 1024.61 1024.50 1024.40 1024.30 1024.21 1024.12 1024.04 1023.95 1023.85 1023.72 1023.56 1023.37 1023.14 1022.89 1022.62 1022.35 1022.08 1021.84 1021.65 1021.49 1021.38
1024.88 1024.95 1025.01 1025.07 1025.11 1025.13 1025.14 1025.13 1025.11 1025.09 1025.05 1025.01 1024.97 1024.91 1024.85 1024.77 1024.67 1024.57 1024.46 1024.35 1024.24 1024.13 1024.03 1023.93 1023.82 1023.71 1023.57 1023.42 1023.23 1023.01 1022.77 1022.50 1022.24 1021.98 1021.74 1021.53 1021.35 1021.22
1024.87 1024.89 1024.90 1024.92 1024.93 1024.93 1024.94 1024.94 1024.94 1024.95 1024.95 1024.95 1024.95 1024.93 1024.89 1024.83 1024.75 1024.64 1024.52 1024.38 1024.24 1024.09 1023.95 1023.81 1023.67 1023.53 1023.37 1023.19 1023.00 1022.78 1022.53 1022.27 1022.00 1021.74 1021.49 1021.26 1021.07 1020.91
1024.74 1024.72 1024.70 1024.69 1024.69 1024.70 1024.72 1024.76 1024.80 1024.85 1024.91 1024.96 1025.01 1025.03 1025.02 1024.97 1024.89 1024.77 1024.62 1024.45 1024.26 1024.06 1023.87 1023.67 1023.48 1023.29 1023.10 1022.89 1022.67 1022.44 1022.18 1021.91 1021.63 1021.36 1021.09 1020.84 1020.61 1020.41
1024.57 1024.52 1024.49 1024.48 1024.49 1024.52 1024.57 1024.65 1024.74 1024.85 1024.96 1025.06 1025.15 1025.19 1025.20 1025.15 1025.06 1024.91 1024.72 1024.50 1024.26 1024.00 1023.75 1023.49 1023.25 1023.01 1022.77 1022.54 1022.29 1022.03 1021.75 1021.46 1021.16 1020.86 1020.56 1020.28 1020.01 1019.76
1024.40 1024.36 1024.33 1024.34 1024.37 1024.44 1024.54 1024.66 1024.80 1024.95 1025.10 1025.23 1025.33 1025.39 1025.39 1025.32 1025.19 1025.01 1024.78 1024.51 1024.21 1023.90 1023.59 1023.29 1023.00 1022.72 1022.45 1022.17 1021.90 1021.61 1021.30 1020.99 1020.66 1020.32 1019.98 1019.65 1019.34 1019.04
1024.29 1024.26 1024.27 1024.30 1024.37 1024.48 1024.62 1024.78 1024.96 1025.14 1025.30 1025.44 1025.53 1025.57 1025.54 1025.44 1025.27 1025.04 1024.77 1024.45 1024.11 1023.77 1023.43 1023.09 1022.78 1022.47 1022.17 1021.87 1021.57 1021.25 1020.91 1020.56 1020.19 1019.81 1019.43 1019.05 1018.68 1018.33
Thickness
5660 5660 5660 5660 5658 5655 5653 5649 5640 5627 5617 5614 5613 5611 5610 5608 5605 5602 5598 5596 5593 5590 5587 5584 5582 5578 5575 5571 5568 5564 5560 5557 5553 5550 5546 5543 5540 5537
5650 5650 5650 5649 5648 5646 5643 5640 5638 5630 5617 5610 5607 5605 5603 5600 5597 5594 5591 5587 5584 5581 5579 5576 5573 5570 5566 5562 5558 5555 5551 5548 5544 5540 5536 5533 5530 5527
5639 5639 5638 5638 5637 5635 5633 5631 5627 5624 5615 5604 5600 5598 5596 5593 5588 5586 5583 5579 5576 5574 5571 5568 5565 5562 5558 5554 5550 5546 5542 5539 5535 5531 5528 5525 5522 5519
5627 5628 5628 5627 5626 5625 5623 5620 5617 5615 5610 5600 5594 5591 5588 5585 5582 5579 5576 5573 5570 5567 5564 5561 5557 5554 5550 5546 5543 5539 5535 5531 5528 5524 5521 5518 5515 5512
5617 5617 5617 5617 5616 5614 5612 5610 5608 5605 5601 5595 5588 5584 5581 5579 5575 5573 5571 5568 5565 5562 5558 5554 5551 5547 5543 5540 5536 5532 5529 5525 5521 5518 5515 5512 5509 5507
5608 5607 5607 5607 5607 5606 5604 5602 5600 5596 5592 5587 5582 5577 5574 5571 5569 5566 5564 5562 5560 5557 5552 5549 5546 5541 5537 5534 5530 5527 5523 5520 5516 5513 5511 5508 5505 5503
5597 5597 5596 5597 5597 5598 5597 5594 5592 5589 5584 5580 5575 5571 5567 5564 5562 5561 5558 5556 5554 5551 5547 5544 5540 5536 5532 5529 5526 5522 5519 5516 5513 5510 5508 5505 5502 5500
5586 5586 5586 5586 5586 5586 5585 5584 5583 5581 5577 5574 5569 5565 5561 5559 5557 5555 5551 5548 5544 5544 5542 5539 5537 5533 5530 5526 5523 5520 5516 5513 5510 5507 5505 5502 5500 5498
5577 5578 5578 5577 5577 5576 5575 5574 5573 5572 5570 5568 5562 5558 5555 5553 5551 5548 5545 5541 5538 5538 5536 5533 5533 5530 5528 5525 5521 5518 5514 5511 5508 5505 5503 5500 5498 5496
5567 5567 5567 5566 5566 5567 5566 5564 5562 5560 5560 5558 5554 5551 5549 5546 5544 5541 5539 5536 5535 5533 5531 5527 5528 5526 5526 5522 5519 5516 5513 5509 5506 5504 5502 5500 5498 5496
5556 5556 5557 5556 5556 5558 5557 5555 5552 5550 5549 5547 5545 5543 5541 5539 5536 5534 5532 5529 5526 5526 5526 5524 5522 5521 5520 5519 5516 5514 5511 5509 5506 5503 5501 5499 5497 5495
5547 5547 5546 5547 5548 5548 5548 5547 5544 5542 5541 5539 5537 5536 5534 5532 5530 5528 5526 5523 5521 5519 5520 5519 5517 5516 5514 5516 5515 5513 5510 5508 5506 5504 5502 5500 5498 5495
5541 5539 5538 5539 5539 5540 5540 5538 5535 5535 5535 5534 5532 5530 5528 5526 5524 5523 5522 5519 5516 5514 5516 5515 5512 5511 5509 5509 5511 5512 5511 5509 5508 5506 5504 5503 5500 5497
5534 5532 5530 5532 5532 5532 5532 5531 5531 5530 5530 5529 5527 5524 5523 5521 5520 5519 5518 5517 5516 5514 5514 5512 5510 5508 5506 5505 5506 5509 5510 5510 5509 5508 5507 5505 5503 5501
5527 5526 5526 5526 5526 5527 5527 5527 5527 5527 5526 5524 5522 5520 5520 5519 5518 5517 5516 5515 5515 5514 5514 5512 5511 5509 5507 5505 5505 5507 5508 5509 5510 5509 5507 5506 5505 5503
5523 5522 5523 5523 5523 5523 5523 5524 5524 5523 5522 5520 5519 5519 5518 5517 5516 5516 5514 5514 5513 5514 5514 5513 5512 5511 5508 5508 5507 5506 5508 5508 5509 5509 5508 5507 5506 5506
5519 5521 5521 5521 5521 5522 5522 5522 5521 5520 5519 5518 5517 5516 5516 5516 5515 5515 5514 5513 5512 5512 5513 5514 5514 5514 5512 5510 5508 5508 5508 5508 5509 5508 5507 5505 5506 5507
5518 5520 5522 5522 5522 5522 5522 5521 5520 5518 5517 5517 5516 5515 5514 5514 5514 5514 5514 5513 5512 5512 5512 5513 5513 5513 5512 5513 5512 5509 5508 5507 5508 5507 5506 5505 5505 5506
5519 5522 5522 5522 5523 5523 5522 5521 5519 5518 5516 5516 5515 5514 5514 5513 5513 5513 5513 5512 5512 5512 5512 5513 5513 5511 5508 5507 5510 5510 5508 5507 5507 5506 5506 5505 5504 5506
5523 5524 5524 5524 5523 5523 5522 5520 5519 5518 5517 5516 5515 5514 5513 5513 5513 5512 5513 5512 5512 5511 5512 5513 5513 5512 5509 5508 5509 5511 5511 5508 5507 5505 5505 5506 5506 5506
5527 5527 5526 5526 5525 5523 5523 5521 5520 5519 5518 5516 5515 5515 5514 5513 5513 5513 5513 5513 5512 5512 5513 5514 5515 5515 5514 5512 5510 5511 5514 5513 5510 5508 5506 5505 5504 5503
5531 5530 5528 5527 5527 5526 5525 5524 5523 5521 5520 5519 5518 5517 5516 5515 5515 5515 5514 5514 5514 5515 5515 5516 5517 5516 5514 5512 5511 5512 5514 5515 5514 5512 5509 5507 5503 5501
5532 5532 5532 5532 5530 5529 5528 5527 5526 5525 5523 5522 5520 5519 5518 5517 5517 5517 5517 5517 5517 5516 5516 5516 5516 5515 5515 5514 5513 5513 5514 5514 5514 5514 5512 5512 5510 5508